When you browse on this site, cookies collect data to enhance your experience and personalize the content and advertising you see.
Visit our Privacy Policy to learn more. By continuing to use the site, you agree to this use of cookies and data.
  • In United Kingdom
  • List of Countries
  • For 7 days
  • Water Temperature
  • Weather Map
  • Weather Widgets
  • user-avatar
    Login

    Hourly Weather Curtea de Arges

    Today, 29 January, Wednesday

    Time Temperature Precipitation Wind Pressure Humidity
    00:00 +4°C° 0 mm 1 mps 708 mmHg 87%
    01:00 +4°C° 0 mm 1 mps 708 mmHg 87%
    02:00 +5°C° 0 mm 1 mps 707 mmHg 85%
    03:00 +5°C° 0.4 mm 1 mps 707 mmHg 87%
    04:00 +5°C° 0.4 mm 1 mps 706 mmHg 90%
    05:00 +4°C° 0.4 mm 1 mps 706 mmHg 92%
    06:00 +5°C° 0.8 mm 1 mps 706 mmHg 94%
    07:00 +4°C° 0.8 mm 2 mps 707 mmHg 95%
    08:00 +4°C° 0.8 mm 2 mps 707 mmHg 96%
    09:00 +4°C° 0 mm 3 mps 708 mmHg 88%
    10:00 +4°C° 0 mm 3 mps 708 mmHg 79%
    11:00 +5°C° 0 mm 3 mps 708 mmHg 71%
    12:00 +5°C° 0 mm 3 mps 709 mmHg 62%
    13:00 +7°C° 0 mm 3 mps 709 mmHg 52%
    14:00 +8°C° 0 mm 3 mps 710 mmHg 43%
    15:00 +7°C° 0 mm 2 mps 710 mmHg 47%
    16:00 +6°C° 0 mm 2 mps 709 mmHg 52%
    17:00 +6°C° 0 mm 1 mps 709 mmHg 56%
    18:00 +5°C° 0 mm 1 mps 710 mmHg 57%
    19:00 +4°C° 0 mm 1 mps 710 mmHg 58%
    20:00 +3°C° 0 mm 1 mps 710 mmHg 60%
    21:00 +3°C° 0 mm 1 mps 711 mmHg 59%
    22:00 +3°C° 0 mm 1 mps 711 mmHg 59%
    23:00 +3°C° 0 mm 1 mps 711 mmHg 59%

    Tomorrow, 30 January, Thursday

    Time Temperature Precipitation Wind Pressure Humidity
    00:00 +2°C° 0 mm 1 mps 711 mmHg 60%
    01:00 +1°C° 0 mm 2 mps 711 mmHg 62%
    02:00 -1°C° 0 mm 2 mps 711 mmHg 64%
    03:00 -1°C° 0 mm 2 mps 711 mmHg 65%
    04:00 -1°C° 0 mm 2 mps 712 mmHg 66%
    05:00 -1°C° 0 mm 2 mps 712 mmHg 67%
    06:00 -1°C° 0 mm 2 mps 712 mmHg 68%
    07:00 -1°C° 0 mm 2 mps 713 mmHg 69%
    08:00 -1°C° 0 mm 2 mps 713 mmHg 70%
    09:00 +1°C° 0 mm 2 mps 714 mmHg 64%
    10:00 +2°C° 0 mm 2 mps 714 mmHg 59%
    11:00 +3°C° 0 mm 2 mps 714 mmHg 53%
    12:00 +4°C° 0 mm 2 mps 715 mmHg 51%
    13:00 +5°C° 0 mm 2 mps 715 mmHg 48%
    14:00 +4°C° 0 mm 3 mps 715 mmHg 45%
    15:00 +5°C° 0 mm 2 mps 715 mmHg 49%
    16:00 +4°C° 0 mm 2 mps 715 mmHg 53%
    17:00 +3°C° 0 mm 2 mps 715 mmHg 57%
    18:00 +2°C° 0 mm 2 mps 715 mmHg 61%
    19:00 +1°C° 0 mm 2 mps 715 mmHg 66%
    20:00 -1°C° 0 mm 2 mps 715 mmHg 70%
    21:00 -1°C° 0 mm 2 mps 715 mmHg 69%
    22:00 -1°C° 0 mm 2 mps 715 mmHg 67%
    23:00 -2°C° 0 mm 2 mps 715 mmHg 66%

    Day after tomorrow, 31 January, Friday

    Time Temperature Precipitation Wind Pressure Humidity
    00:00 +1°C° 0 mm 1 mps 715 mmHg 66%
    01:00 +1°C° 0 mm 1 mps 715 mmHg 67%
    02:00 +1°C° 0 mm 1 mps 715 mmHg 67%
    03:00 +1°C° 0 mm 1 mps 714 mmHg 68%
    04:00 +1°C° 0 mm 1 mps 714 mmHg 69%
    05:00 +1°C° 0 mm 1 mps 714 mmHg 70%
    06:00 +1°C° 0 mm 1 mps 713 mmHg 71%
    07:00 +1°C° 0 mm 1 mps 713 mmHg 71%
    08:00 +1°C° 0 mm 1 mps 713 mmHg 72%
    09:00 +2°C° 0 mm 1 mps 713 mmHg 68%
    10:00 +4°C° 0 mm 1 mps 713 mmHg 63%
    11:00 +5°C° 0 mm 1 mps 712 mmHg 59%
    12:00 +4°C° 0 mm 2 mps 712 mmHg 60%
    13:00 +4°C° 0 mm 3 mps 711 mmHg 61%
    14:00 +4°C° 0 mm 4 mps 711 mmHg 62%
    15:00 +4°C° 0.1 mm 4 mps 710 mmHg 67%
    16:00 +4°C° 0.1 mm 3 mps 710 mmHg 73%
    17:00 +4°C° 0.1 mm 3 mps 709 mmHg 78%
    18:00 +3°C° 0.4 mm 3 mps 710 mmHg 82%
    19:00 +3°C° 0.4 mm 3 mps 710 mmHg 86%
    20:00 +3°C° 0.4 mm 3 mps 710 mmHg 89%
    21:00 +3°C° 0.1 mm 3 mps 710 mmHg 89%
    22:00 +3°C° 0.1 mm 3 mps 711 mmHg 89%
    23:00 +3°C° 0.1 mm 3 mps 711 mmHg 89%

    1 February, Saturday

    Time Temperature Precipitation Wind Pressure Humidity
    00:00 +4°C° 0 mm 2 mps 711 mmHg 89%
    01:00 +4°C° 0 mm 2 mps 712 mmHg 89%
    02:00 +3°C° 0 mm 2 mps 712 mmHg 89%
    03:00 +3°C° 0 mm 2 mps 712 mmHg 88%
    04:00 +3°C° 0 mm 2 mps 713 mmHg 87%
    05:00 +3°C° 0 mm 2 mps 713 mmHg 86%
    06:00 +3°C° 0 mm 2 mps 713 mmHg 85%
    07:00 +3°C° 0 mm 2 mps 714 mmHg 83%
    08:00 +2°C° 0 mm 2 mps 714 mmHg 82%
    09:00 +4°C° 0 mm 2 mps 715 mmHg 75%
    10:00 +7°C° 0 mm 1 mps 715 mmHg 68%
    11:00 +9°C° 0 mm 1 mps 716 mmHg 62%
    12:00 +10°C° 0 mm 1 mps 716 mmHg 59%
    13:00 +11°C° 0 mm 1 mps 716 mmHg 57%
    14:00 +11°C° 0 mm 1 mps 716 mmHg 54%
    15:00 +10°C° 0 mm 1 mps 715 mmHg 59%
    16:00 +9°C° 0 mm 0 mps 715 mmHg 63%
    17:00 +8°C° 0 mm 0 mps 715 mmHg 68%
    18:00 +8°C° 0 mm 1 mps 715 mmHg 70%
    19:00 +7°C° 0 mm 1 mps 715 mmHg 73%
    20:00 +6°C° 0 mm 1 mps 715 mmHg 75%
    21:00 +6°C° 0 mm 1 mps 714 mmHg 77%
    22:00 +6°C° 0 mm 1 mps 714 mmHg 78%
    23:00 +5°C° 0 mm 1 mps 714 mmHg 79%

    2 February, Sunday

    Time Temperature Precipitation Wind Pressure Humidity
    00:00 +5°C° 0 mm 1 mps 714 mmHg 80%
    01:00 +5°C° 0 mm 1 mps 713 mmHg 81%
    02:00 +5°C° 0 mm 1 mps 713 mmHg 82%
    03:00 +5°C° 0 mm 1 mps 713 mmHg 83%
    04:00 +5°C° 0 mm 1 mps 713 mmHg 83%
    05:00 +4°C° 0 mm 1 mps 712 mmHg 84%
    06:00 +4°C° 0 mm 1 mps 712 mmHg 85%
    07:00 +4°C° 0 mm 1 mps 712 mmHg 85%
    08:00 +3°C° 0 mm 0 mps 712 mmHg 86%
    09:00 +6°C° 0 mm 1 mps 712 mmHg 80%
    10:00 +8°C° 0 mm 1 mps 713 mmHg 75%
    11:00 +9°C° 0 mm 1 mps 713 mmHg 69%
    12:00 +10°C° 0 mm 1 mps 713 mmHg 69%
    13:00 +10°C° 0 mm 2 mps 713 mmHg 68%
    14:00 +10°C° 0 mm 2 mps 714 mmHg 67%
    15:00 +9°C° 0 mm 2 mps 714 mmHg 71%
    16:00 +9°C° 0 mm 2 mps 714 mmHg 75%
    17:00 +8°C° 0 mm 2 mps 715 mmHg 79%
    18:00 +7°C° 0 mm 2 mps 715 mmHg 79%
    19:00 +6°C° 0 mm 2 mps 716 mmHg 79%
    20:00 +4°C° 0 mm 3 mps 716 mmHg 79%
    21:00 +4°C° 0 mm 3 mps 717 mmHg 78%
    22:00 +3°C° 0 mm 3 mps 717 mmHg 77%
    23:00 +3°C° 0 mm 3 mps 718 mmHg 76%

    3 February, Monday

    Time Temperature Precipitation Wind Pressure Humidity
    00:00 +3°C° 0 mm 2 mps 718 mmHg 76%
    01:00 +2°C° 0 mm 2 mps 718 mmHg 75%
    02:00 +2°C° 0 mm 2 mps 718 mmHg 75%
    03:00 +2°C° 0 mm 2 mps 718 mmHg 74%
    04:00 +1°C° 0 mm 2 mps 718 mmHg 74%
    05:00 +1°C° 0 mm 2 mps 718 mmHg 73%
    06:00 +1°C° 0 mm 2 mps 718 mmHg 73%
    07:00 +1°C° 0 mm 2 mps 718 mmHg 72%
    08:00 +2°C° 0 mm 1 mps 718 mmHg 72%
    09:00 +4°C° 0 mm 1 mps 719 mmHg 67%
    10:00 +5°C° 0 mm 1 mps 719 mmHg 61%
    11:00 +7°C° 0 mm 1 mps 719 mmHg 56%
    12:00 +7°C° 0 mm 2 mps 719 mmHg 56%
    13:00 +8°C° 0 mm 2 mps 719 mmHg 56%
    14:00 +8°C° 0 mm 3 mps 718 mmHg 55%
    15:00 +8°C° 0 mm 2 mps 718 mmHg 60%
    16:00 +7°C° 0 mm 2 mps 718 mmHg 64%
    17:00 +7°C° 0 mm 2 mps 718 mmHg 69%
    18:00 +6°C° 0 mm 2 mps 718 mmHg 72%
    19:00 +5°C° 0 mm 2 mps 718 mmHg 76%
    20:00 +5°C° 0 mm 2 mps 717 mmHg 79%
    21:00 +5°C° 0 mm 2 mps 717 mmHg 79%
    22:00 +6°C° 0 mm 1 mps 717 mmHg 79%
    23:00 +6°C° 0 mm 1 mps 717 mmHg 78%
    Show more